When you browse on this site, cookies collect data to enhance your experience and personalize the content and advertising you see.
Visit our Privacy Policy to learn more. By continuing to use the site, you agree to this use of cookies and data.
  • In Deutschland
  • Länderverzeichnis
  • Für 7 Tage
  • Wassertemperatur
  • Wetterkarte
  • Widgets
  • user-avatar
    Anmelden

    Stündliche Wetter Abowian

    Heute, 23 Januar, Donnerstag

    Zeit Temperatur Niederschläge Wind Luftdruck Luftfeuchtigkeit
    00:00 -4°C° 0 mm 1 m/S 670 mmHg 57%
    01:00 -4°C° 0 mm 1 m/S 670 mmHg 58%
    02:00 -4°C° 0 mm 1 m/S 669 mmHg 59%
    03:00 -4°C° 0 mm 1 m/S 669 mmHg 63%
    04:00 -6°C° 0 mm 1 m/S 668 mmHg 65%
    05:00 -6°C° 0 mm 1 m/S 668 mmHg 66%
    06:00 -6°C° 0 mm 1 m/S 668 mmHg 67%
    07:00 -4°C° 0 mm 1 m/S 668 mmHg 65%
    08:00 -3°C° 0 mm 1 m/S 668 mmHg 64%
    09:00 -3°C° 0 mm 1 m/S 667 mmHg 62%
    10:00 -2°C° 0 mm 1 m/S 667 mmHg 60%
    11:00 -1°C° 0 mm 1 m/S 667 mmHg 58%
    12:00 0°C° 0 mm 1 m/S 666 mmHg 55%
    13:00 0°C° 0 mm 1 m/S 666 mmHg 56%
    14:00 +1°C° 0 mm 1 m/S 665 mmHg 57%
    15:00 +1°C° 0 mm 1 m/S 665 mmHg 57%
    16:00 0°C° 0.2 mm 1 m/S 665 mmHg 64%
    17:00 -1°C° 0.2 mm 1 m/S 665 mmHg 72%
    18:00 -3°C° 0.2 mm 2 m/S 665 mmHg 79%
    19:00 -4°C° 0.1 mm 2 m/S 665 mmHg 80%
    20:00 -2°C° 0.1 mm 1 m/S 665 mmHg 80%
    21:00 -2°C° 0.1 mm 1 m/S 666 mmHg 81%
    22:00 -2°C° 0.3 mm 1 m/S 666 mmHg 85%
    23:00 -2°C° 0.3 mm 1 m/S 666 mmHg 89%

    Morgen, 24 Januar, Freitag

    Zeit Temperatur Niederschläge Wind Luftdruck Luftfeuchtigkeit
    00:00 -2°C° 0.3 mm 1 m/S 666 mmHg 93%
    01:00 -2°C° 0.2 mm 1 m/S 666 mmHg 93%
    02:00 -3°C° 0.2 mm 1 m/S 666 mmHg 92%
    03:00 -3°C° 0.2 mm 1 m/S 667 mmHg 92%
    04:00 -3°C° 0 mm 1 m/S 667 mmHg 91%
    05:00 -3°C° 0 mm 1 m/S 667 mmHg 90%
    06:00 -3°C° 0 mm 1 m/S 667 mmHg 88%
    07:00 -3°C° 0 mm 1 m/S 668 mmHg 83%
    08:00 -3°C° 0 mm 1 m/S 669 mmHg 78%
    09:00 -2°C° 0 mm 1 m/S 669 mmHg 73%
    10:00 -2°C° 0 mm 1 m/S 670 mmHg 67%
    11:00 -3°C° 0 mm 2 m/S 670 mmHg 61%
    12:00 -2°C° 0 mm 2 m/S 670 mmHg 56%
    13:00 -2°C° 0 mm 3 m/S 670 mmHg 54%
    14:00 -2°C° 0 mm 3 m/S 670 mmHg 52%
    15:00 -2°C° 0 mm 3 m/S 670 mmHg 50%
    16:00 -4°C° 0 mm 3 m/S 671 mmHg 50%
    17:00 -6°C° 0 mm 3 m/S 671 mmHg 51%
    18:00 -7°C° 0 mm 3 m/S 672 mmHg 52%
    19:00 -8°C° 0 mm 3 m/S 672 mmHg 51%
    20:00 -8°C° 0 mm 3 m/S 673 mmHg 51%
    21:00 -9°C° 0 mm 3 m/S 674 mmHg 51%
    22:00 -8°C° 0 mm 2 m/S 674 mmHg 51%
    23:00 -8°C° 0 mm 2 m/S 675 mmHg 51%

    übermorgen, 25 Januar, Samstag

    Zeit Temperatur Niederschläge Wind Luftdruck Luftfeuchtigkeit
    00:00 -9°C° 0 mm 2 m/S 675 mmHg 51%
    01:00 -9°C° 0 mm 2 m/S 675 mmHg 51%
    02:00 -9°C° 0 mm 2 m/S 676 mmHg 51%
    03:00 -10°C° 0 mm 2 m/S 676 mmHg 51%
    04:00 -9°C° 0 mm 1 m/S 676 mmHg 51%
    05:00 -9°C° 0 mm 1 m/S 676 mmHg 51%
    06:00 -10°C° 0 mm 1 m/S 676 mmHg 50%
    07:00 -9°C° 0 mm 1 m/S 676 mmHg 49%
    08:00 -8°C° 0 mm 1 m/S 677 mmHg 48%
    09:00 -7°C° 0 mm 1 m/S 677 mmHg 47%
    10:00 -6°C° 0 mm 1 m/S 677 mmHg 47%
    11:00 -4°C° 0 mm 1 m/S 677 mmHg 47%
    12:00 -3°C° 0 mm 1 m/S 676 mmHg 47%
    13:00 -2°C° 0 mm 1 m/S 676 mmHg 47%
    14:00 -2°C° 0 mm 1 m/S 676 mmHg 48%
    15:00 -2°C° 0 mm 1 m/S 675 mmHg 48%
    16:00 -3°C° 0 mm 1 m/S 675 mmHg 50%
    17:00 -4°C° 0 mm 1 m/S 675 mmHg 51%
    18:00 -6°C° 0 mm 1 m/S 675 mmHg 53%
    19:00 -6°C° 0 mm 1 m/S 675 mmHg 52%
    20:00 -6°C° 0 mm 1 m/S 675 mmHg 52%
    21:00 -6°C° 0 mm 1 m/S 675 mmHg 51%
    22:00 -6°C° 0 mm 1 m/S 674 mmHg 52%
    23:00 -7°C° 0 mm 1 m/S 674 mmHg 52%

    26 Januar, Sonntag

    Zeit Temperatur Niederschläge Wind Luftdruck Luftfeuchtigkeit
    00:00 -7°C° 0 mm 1 m/S 674 mmHg 53%
    01:00 -7°C° 0 mm 1 m/S 674 mmHg 54%
    02:00 -7°C° 0 mm 1 m/S 674 mmHg 55%
    03:00 -7°C° 0 mm 1 m/S 674 mmHg 55%
    04:00 -7°C° 0 mm 1 m/S 673 mmHg 56%
    05:00 -8°C° 0 mm 1 m/S 673 mmHg 57%
    06:00 -8°C° 0 mm 1 m/S 673 mmHg 58%
    07:00 -7°C° 0 mm 1 m/S 673 mmHg 56%
    08:00 -6°C° 0 mm 1 m/S 674 mmHg 53%
    09:00 -5°C° 0 mm 0 m/S 674 mmHg 51%
    10:00 -4°C° 0 mm 0 m/S 674 mmHg 49%
    11:00 -3°C° 0 mm 0 m/S 673 mmHg 48%
    12:00 -1°C° 0 mm 0 m/S 673 mmHg 46%
    13:00 -1°C° 0 mm 0 m/S 673 mmHg 46%
    14:00 0°C° 0 mm 1 m/S 672 mmHg 45%
    15:00 +1°C° 0 mm 1 m/S 672 mmHg 45%
    16:00 -1°C° 0 mm 1 m/S 672 mmHg 47%
    17:00 -2°C° 0 mm 1 m/S 672 mmHg 48%
    18:00 -3°C° 0 mm 1 m/S 672 mmHg 50%
    19:00 -3°C° 0 mm 1 m/S 672 mmHg 51%
    20:00 -3°C° 0 mm 1 m/S 672 mmHg 51%
    21:00 -4°C° 0 mm 1 m/S 673 mmHg 52%
    22:00 -4°C° 0 mm 1 m/S 673 mmHg 53%
    23:00 -4°C° 0 mm 1 m/S 673 mmHg 53%

    27 Januar, Montag

    Zeit Temperatur Niederschläge Wind Luftdruck Luftfeuchtigkeit
    00:00 -4°C° 0 mm 1 m/S 673 mmHg 54%
    01:00 -4°C° 0 mm 1 m/S 673 mmHg 56%
    02:00 -4°C° 0 mm 1 m/S 673 mmHg 57%
    03:00 -4°C° 0 mm 1 m/S 673 mmHg 58%
    04:00 -6°C° 0 mm 1 m/S 673 mmHg 59%
    05:00 -6°C° 0 mm 1 m/S 674 mmHg 59%
    06:00 -6°C° 0 mm 1 m/S 674 mmHg 60%
    07:00 -4°C° 0 mm 1 m/S 674 mmHg 58%
    08:00 -3°C° 0 mm 1 m/S 675 mmHg 55%
    09:00 -2°C° 0 mm 1 m/S 676 mmHg 53%
    10:00 -2°C° 0 mm 0 m/S 676 mmHg 51%
    11:00 -1°C° 0 mm 0 m/S 676 mmHg 50%
    12:00 +1°C° 0 mm 0 m/S 676 mmHg 48%
    13:00 +1°C° 0 mm 0 m/S 676 mmHg 49%
    14:00 +1°C° 0 mm 0 m/S 676 mmHg 50%
    15:00 +2°C° 0 mm 0 m/S 676 mmHg 51%
    16:00 +1°C° 0 mm 1 m/S 676 mmHg 53%
    17:00 0°C° 0 mm 1 m/S 676 mmHg 56%
    18:00 -2°C° 0 mm 1 m/S 676 mmHg 58%
    19:00 -2°C° 0 mm 1 m/S 677 mmHg 60%
    20:00 -2°C° 0 mm 1 m/S 677 mmHg 61%
    21:00 -3°C° 0 mm 1 m/S 677 mmHg 62%
    22:00 -3°C° 0 mm 1 m/S 677 mmHg 62%
    23:00 -3°C° 0 mm 1 m/S 677 mmHg 62%

    28 Januar, Dienstag

    Zeit Temperatur Niederschläge Wind Luftdruck Luftfeuchtigkeit
    00:00 -4°C° 0 mm 1 m/S 677 mmHg 62%
    01:00 -4°C° 0 mm 1 m/S 677 mmHg 63%
    02:00 -4°C° 0 mm 1 m/S 677 mmHg 64%
    03:00 -4°C° 0 mm 1 m/S 676 mmHg 65%
    04:00 -4°C° 0 mm 1 m/S 676 mmHg 66%
    05:00 -4°C° 0 mm 1 m/S 676 mmHg 67%
    06:00 -6°C° 0 mm 1 m/S 676 mmHg 67%
    07:00 -4°C° 0 mm 1 m/S 676 mmHg 64%
    08:00 -4°C° 0 mm 0 m/S 677 mmHg 61%
    09:00 -2°C° 0 mm 0 m/S 677 mmHg 57%
    10:00 -1°C° 0 mm 0 m/S 677 mmHg 56%
    11:00 0°C° 0 mm 0 m/S 676 mmHg 54%
    12:00 +1°C° 0 mm 0 m/S 676 mmHg 52%
    13:00 +1°C° 0 mm 0 m/S 676 mmHg 52%
    14:00 +1°C° 0 mm 0 m/S 675 mmHg 52%
    15:00 +1°C° 0 mm 0 m/S 675 mmHg 52%
    16:00 0°C° 0 mm 0 m/S 675 mmHg 53%
    17:00 0°C° 0 mm 1 m/S 675 mmHg 55%
    18:00 -1°C° 0 mm 1 m/S 674 mmHg 56%
    19:00 -1°C° 0 mm 1 m/S 675 mmHg 56%
    20:00 -2°C° 0 mm 1 m/S 675 mmHg 56%
    21:00 -2°C° 0 mm 1 m/S 675 mmHg 57%
    22:00 -2°C° 0 mm 1 m/S 675 mmHg 57%
    23:00 -2°C° 0 mm 1 m/S 674 mmHg 58%
    Mehr zeigen